Home > Weather > Thousand Oaks > Past weeks

Flag for USA Past Weather in Thousand Oaks, California, USA — Yesterday and Last 2 Weeks

Now
66 °F

Low clouds.


Feels Like: 66 °F
Forecast: 62 / 84 °F
Wind: 3 mph from North

Location: Camarillo Airport

Current Time: Jun 29, 2016 at 7:40:00 AM

Latest Report: Jun 29, 2016 at 6:55 AM


Visibility: 4 mi

Pressure: 29.93 "Hg

Humidity: 84%

Dew Point: 61 °F

Location of Thousand OaksLocation

Past Weather in Thousand Oaks — Graph

°F

Thousand Oaks Temperature Yesterday

Maximum temperature yesterday: 79 °F (at 4:55 PM)
Minimum temperature yesterday: 65 °F (at 1:55 AM)
Average temperature yesterday: 69 °F

High & Low Weather Summary for the Past Weeks

 TemperatureHumidityPressure
High92 °F (Jun 20, 1:55 PM)97% (Jun 22, 7:55 AM)30.07 "Hg (Jun 22, 7:55 AM)
Low52 °F (Jun 16, 5:55 AM)26% (Jun 20, 12:55 PM)29.84 "Hg (Jun 25, 5:55 PM)
Average67 °F71%29.95 "Hg
* Reported Jun 14 5:55 AM — Jun 29 5:55 AM, Thousand Oaks, Weather by CustomWeather, © 2016

Note: Actual official high and low records may vary slightly from our data, if they occured in-between our weather recording intervals... More about our weather records

Advertising

Thousand Oaks Weather History for the Previous 24 Hours

Scroll right to see more
 ConditionsComfort  
Time TempWeatherWind HumidityBarometerVisibility
5:55 AM
Wed, Jun 29
65 °FFog.No wind87%29.93 "Hg6 mi
4:55 AM65 °FFog.3 mph87%29.93 "Hg6 mi
3:55 AM65 °FFog.No wind87%29.91 "Hg6 mi
2:55 AM65 °FFog.3 mph87%29.91 "Hg6 mi
1:55 AM65 °FLow clouds.5 mph87%29.92 "Hg7 mi
12:55 AM65 °FPassing clouds.3 mph85%29.92 "Hg10 mi
11:55 PM
Tue, Jun 28
66 °FClear.3 mph81%29.92 "Hg10 mi
10:55 PM66 °FClear.3 mph81%29.92 "Hg10 mi
9:55 PM66 °FClear.No wind84%29.93 "Hg10 mi
8:55 PM66 °FSunny.5 mph81%29.92 "Hg10 mi
7:55 PM66 °FSunny.6 mph84%29.92 "Hg9 mi
6:55 PM69 °FSunny.9 mph76%29.92 "Hg9 mi
5:55 PM76 °FSunny.8 mph62%29.92 "Hg10 mi
4:55 PM79 °FSunny.10 mph54%29.92 "Hg10 mi
3:55 PM76 °FSunny.7 mph60%29.94 "Hg10 mi
2:55 PM76 °FSunny.6 mph62%29.96 "Hg10 mi
1:55 PM75 °FSunny.10 mph64%29.98 "Hg10 mi
12:55 PM75 °FSunny.10 mph66%29.99 "Hg9 mi
11:55 AM73 °FScattered clouds.10 mph71%30.00 "Hg8 mi
10:55 AM69 °FPartly sunny.9 mph81%29.99 "Hg6 mi
9:55 AM72 °FSunny.10 mph76%29.96 "Hg6 mi
8:55 AM70 °FSunny.3 mph76%29.97 "Hg7 mi
7:55 AM66 °FFog.No wind87%29.98 "Hg5 mi
Weather by CustomWeather, © 2016

See weather overviewHow to use our weather pages